Weather Roundup
Issued by NWS Springfield, MO

Home | Current Version | Previous Version | Text Only | Print | Product List | Glossary On
Versions: 1 2 3 4 5 6 7 8 9 10 11 12 13 14 15 16 17 18 19 20 21 22 23 24 25 26 27 28 29 30 31 32 33 34 35 36 37 38 39 40 41 42 43 44 45 46 47 48 49 50
000
NZUS99 KSGF 190959
HRRSGF

HOURLY WEATHER
NATIONAL WEATHER SERVICE SPRINGFIELD MO
500 AM CDT SAT APR 19 2014

......SGF CWA......

CITY           SKY/WX    TMP DP  RH WIND       PRES   REMARKS
SPRINGFIELD    CLEAR     52  41  66 SE9       30.19R
JOPLIN         CLEAR     53  41  63 SE8       30.17S
WEST PLAINS    CLEAR     44  39  82 NE3       30.22S
ROLLA          CLEAR     49  40  71 SE9       30.21S
OSAGE BEACH    CLEAR     54  37  54 SE3       30.22S

......SURROUNDING SGF CWA......

CITY           SKY/WX    TMP DP  RH WIND       PRES   REMARKS
CHANUTE        CLEAR     45  40  82 SE8       30.13S
PARSONS        CLEAR     41  36  82 CALM      30.14S
COFFEYVILLE    CLEAR     42  39  89 CALM      30.14S
EMPORIA        CLEAR     47  40  76 S9        30.11S HAZE
SILOAM SPRINGS CLEAR     52  37  58 SE6       30.19S
HARRISON AR    CLEAR     50  41  71 CALM      30.21R
NEAR YELLVILLE CLEAR     45  36  70 CALM      30.21S

......KANSAS AND MISSOURI......

CITY           SKY/WX    TMP DP  RH WIND       PRES   REMARKS
KANSAS CTY INT CLEAR     54  39  57 S13       30.14S
DOWNTOWN KC    CLEAR     57  39  51 S7        30.14S
COLUMBIA       CLEAR     50  40  68 SE9       30.21F
SEDALIA        CLEAR     52  41  66 SE8       30.18F
ST JOSEPH      CLEAR     52  40  63 S8        30.13F
ST LOUIS       PTCLDY    52  37  56 E7        30.25R
SPIRIT OF STL  CLEAR     42  39  89 CALM      30.24S
KIRKSVILLE     CLEAR     46  34  62 SE9       30.20F
WICHITA        PTCLDY    48  39  71 S8        30.09S
TOPEKA         CLEAR     50  41  71 SE7       30.11F
OLATHE         CLEAR     50  39  66 SE7       30.14S

......TENNESSEE......

CITY           SKY/WX    TMP DP  RH WIND       PRES   REMARKS
MEMPHIS        PTCLDY    53  49  86 CALM      30.18S
NASHVILLE      PTCLDY    48  45  89 CALM      30.18F

......ARKANSAS.......

CITY           SKY/WX    TMP DP  RH WIND       PRES   REMARKS
FAYETTEVILLE   CLEAR     44  43  96 CALM      30.20S
FT SMITH       CLEAR     53  47  79 NE3       30.18S
LITTLE ROCK    PTCLDY    53  49  86 CALM      30.19R

......OKLAHOMA.......

CITY           SKY/WX    TMP DP  RH WIND       PRES   REMARKS
TULSA          CLEAR     53  45  74 SE7       30.13S
PONCA CITY     PTCLDY    55  41  59 S6        30.12S
MCALESTER      PTCLDY    53  45  74 CALM      30.16S
OKLAHOMA CITY  MOCLDY    49  42  77 SE7       30.11F

......IOWA............

CITY           SKY/WX    TMP DP  RH WIND       PRES   REMARKS
DES MOINES     PTCLDY    50  33  52 SE10      30.16R
QUAD CITIES    CLEAR     34  29  82 E8        30.30F WCI  27

......ILLINOIS........

CITY           SKY/WX    TMP DP  RH WIND       PRES   REMARKS
QUINCY         CLEAR     46  36  68 E10       30.25S
CHICAGO        CLEAR     38  27  64 NE6       30.36R WCI  33



USA.gov is the U.S. government's official web portal to all federal, state and local government web resources and services.